Regional Weather Roundup
Issued by NWS

Home | Current Version | Previous Version | Graphics & Text | Print | Product List | Glossary Off
Versions: 1 2 3 4 5 6 7 8 9 10 11 12 13 14 15 16 17 18 19 20 21 22 23 24 25 26 27 28 29 30 31 32 33 34 35 36 37 38 39 40 41 42 43 44 45 46 47 48 49 50

000
ASUS43 KTOP 261108
RWRKS

WEATHER ROUNDUP FOR KANSAS
NATIONAL WEATHER SERVICE GOODLAND KS
600 AM CDT SUN MAR 26 2017

NOTE:  "FAIR" INDICATES FEW OR NO CLOUDS BELOW 12,000 FEET WITH NO
SIGNIFICANT WEATHER AND/OR OBSTRUCTIONS TO VISIBILITY.

KSZ001>006-013>018-027>032-041>047-261200-
NORTHWEST KANSAS

CITY           SKY/WX    TMP DP  RH WIND       PRES   REMARKS
GOODLAND       FOG       38  38 100 SE10      29.79F VSB 1/2 WCI  31
HAYS             N/A     41  40  96 SE5       29.87F FOG
HILL CITY      CLOUDY    40  40 100 E6        29.87F FOG
RUSSELL        CLOUDY    40  39  97 SE3       29.86F FOG
$$

KSZ061>065-074>080-084>089-261200-
SOUTHWEST KANSAS

CITY           SKY/WX    TMP DP  RH WIND       PRES   REMARKS
DODGE CITY     FOG       37  37 100 E9        29.83F VSB 1/4
ELKHART          N/A     36  28  73 SE13        N/A  WCI  27
GARDEN CITY    CLOUDY    37  36  96 E13       29.79F FOG     WCI  29
GREAT BEND     CLOUDY    41  41 100 S7        29.88F FOG
LIBERAL        CLOUDY    39  34  81 E13       29.76F WCI  32
PRATT          CLOUDY    38  37  97 E5        29.87F FOG
$$

KSZ066>073-081>083-090>101-261200-
SOUTHEAST KANSAS

CITY           SKY/WX    TMP DP  RH WIND       PRES   REMARKS
CHANUTE        CLOUDY    46  44  93 NE5       29.90F
COFFEYVILLE    CLOUDY    48  45  89 CALM      29.91F
HUTCHINSON     CLOUDY    42  40  92 W3        29.90R
MEDICINE LODGE   N/A     41  39  93 E3        29.87F
NEWTON         CLOUDY    42  41  96 W6        29.90R
PARSONS        CLOUDY    47  44  90 CALM      29.90F
WICHITA INTL   CLOUDY    43  42  97 CALM      29.89R
WICHITA JABRA  CLOUDY    43  43 100 SW5       29.90R
WICHITA MCCONL CLOUDY    44  42  95 CALM      29.89R
WINFIELD       CLOUDY    45  41  86 CALM      29.91R
$$

KSZ007>012-019>026-033>040-048>060-102>105-261200-
NORTHEAST KANSAS

CITY           SKY/WX    TMP DP  RH WIND       PRES   REMARKS
CONCORDIA      CLOUDY    40  40 100 N3        29.88F FOG
EMPORIA        CLOUDY    43  43 100 CALM      29.87F FOG
LAWRENCE       CLOUDY    44  42  93 W6        29.91R
MANHATTAN      CLOUDY    43  41  93 N5        29.89F FOG
MARYSVILLE     CLOUDY    41  39  93 NW5       29.89F FOG
OLATHE IND     CLOUDY    43  41  93 W6        29.91R
OLATHE EXE     CLOUDY    43  42  97 W3        29.89S
SALINA         CLOUDY    44  42  93 CALM      29.90R FOG
TOPEKA BILLARD CLOUDY    44  43  96 NW3       29.90R
TOPEKA FORBES  CLOUDY    45  43  93 W6        29.90R
$$




USA.gov is the U.S. government's official web portal to all federal, state and local government web resources and services.